Meeker, CO

6:19 PM MDT on June 24, 2017 (GMT -0600)
Meeker

Weather History for KEEO - October, 2013

Change the Weather History Date:

Tuesday, October 29, 2013

  Actual Average Record
Temperature  
Mean Temperature 42 °F 40 °F  
Max Temperature 52 °F 54 °F 73 °F (2008)
Min Temperature 32 °F 25 °F 21 °F (2011)
Degree Days  
Heating Degree Days 23 26  
Month to date heating degree days 639 584  
Since 1 July heating degree days 851 891  
Cooling Degree Days 0 0  
Month to date cooling degree days 0 0  
Year to date cooling degree days 324 172  
Moisture  
Dew Point 31 °F    
Average Humidity 64    
Maximum Humidity 100    
Minimum Humidity 28    
Precipitation  
Precipitation 0.58 in 0.06 in 0.58 in (2013)
Month to date precipitation 2.85 1.73  
Year to date precipitation 15.88 13.35  
Sea Level Pressure  
Sea Level Pressure 29.87 in    
Wind  
Wind Speed 7 mph (SSW)    
Max Wind Speed 33 mph    
Max Gust Speed 47 mph    
Visibility 5 miles    
Events Fog , Rain , Snow    
T = Trace of Precipitation, MM = Missing Value Source: NWS Daily Summary

Daily Weather History Graph

Daily Weather History Graph

Search for Another Location

Airport or City:

Trip Planner

Search our weather history database for the weather conditions in past years. The results will help you decide how hot, cold, wet, or windy it might be!

Date:

Astronomy

Oct. 29, 2013 Rise Set
Actual Time 7:37 AM MDT 6:12 PM MDT
Civil Twilight 7:09 AM MDT 6:40 PM MDT
Nautical Twilight 6:37 AM MDT 7:12 PM MDT
Astronomical Twilight 6:06 AM MDT 7:43 PM MDT
Moon 2:30 AM MDT (10/29) 3:27 PM MDT (10/29)
Length of Visible Light 11h 30m
Length of Day
10h 34m
Waning Crescent, 24% of the Moon is Illuminated
Oct 29
Waning Crescent
Nov 3
New
Nov 9
First Quarter
Nov 17
Full
Nov 25
Last Quarter

Hourly Weather History & Observations

Time (MDT) Temp. Windchill Dew Point Humidity Pressure Visibility Wind Dir Wind Speed Gust Speed Precip Events Conditions
12:53 AM 51.1 °F - 19.9 °F 29% 29.63 in 10.0 mi SSW 16.1 mph - N/A   Clear
1:53 AM 50.0 °F - 21.9 °F 33% 29.65 in 6.0 mi SSW 25.3 mph 38.0 mph N/A   Haze
2:06 AM 50.0 °F - 21.2 °F 32% 29.84 in 3.0 mi SSW 31.1 mph 47.2 mph N/A   Haze
2:53 AM 48.0 °F - 23.0 °F 37% 29.67 in 10.0 mi SSW 10.4 mph 26.5 mph N/A   Mostly Cloudy
3:53 AM 46.9 °F - 27.0 °F 46% 29.67 in 10.0 mi SSE 18.4 mph 34.5 mph N/A   Scattered Clouds
4:53 AM 44.1 °F 38.1 °F 33.1 °F 65% 29.69 in 10.0 mi SW 11.5 mph - 0.00 in Rain Light Rain
5:49 AM 41.0 °F 32.5 °F 35.6 °F 81% 29.86 in 10.0 mi WSW 17.3 mph - 0.01 in Rain Light Rain
5:53 AM 41.0 °F 31.6 °F 35.1 °F 79% 29.73 in 10.0 mi WSW 20.7 mph 25.3 mph 0.01 in Rain Light Rain
6:05 AM 39.2 °F 28.5 °F 35.6 °F 87% 29.87 in 5.0 mi WSW 24.2 mph 31.1 mph 0.02 in Rain Rain
6:44 AM 37.4 °F 32.1 °F 35.6 °F 93% 29.84 in 10.0 mi NNW 6.9 mph - 0.04 in   Overcast
6:53 AM 37.9 °F 35.5 °F 35.1 °F 89% 29.72 in 10.0 mi NE 3.5 mph - 0.04 in   Overcast
7:41 AM 37.4 °F 27.8 °F 35.6 °F 93% 29.86 in 5.0 mi SW 17.3 mph 25.3 mph 0.02 in Rain Rain
7:53 AM 37.9 °F 29.2 °F 35.1 °F 89% 29.76 in 5.0 mi SW 15.0 mph - 0.05 in Rain Rain
8:07 AM 35.6 °F 24.5 °F 33.8 °F 93% 29.90 in 2.5 mi WSW 20.7 mph 32.2 mph 0.04 in Snow Light Snow
8:11 AM 33.8 °F 24.3 °F 30.2 °F 87% 29.90 in 1.2 mi West 13.8 mph 29.9 mph 0.05 in Snow Light Snow
8:13 AM 33.8 °F 22.5 °F 30.2 °F 87% 29.90 in 0.8 mi West 19.6 mph 29.9 mph 0.05 in Snow Light Snow
8:30 AM 32.0 °F 24.8 °F 32.0 °F 100% 29.92 in 1.2 mi SW 8.1 mph - 0.08 in Snow Light Snow
8:39 AM 33.8 °F 29.6 °F 30.2 °F 87% 29.93 in 1.5 mi WSW 4.6 mph - 0.09 in Snow Light Snow
8:44 AM 33.8 °F 27.7 °F 30.2 °F 87% 29.93 in 0.8 mi WSW 6.9 mph - 0.09 in Snow Light Snow
8:53 AM 33.1 °F 25.5 °F 30.9 °F 92% 29.89 in 0.8 mi West 9.2 mph - 0.10 in Snow Light Snow
9:01 AM 32.0 °F 24.8 °F 30.2 °F 93% 29.95 in 0.5 mi SW 8.1 mph - 0.01 in Fog , Snow Snow
9:31 AM 32.0 °F 25.6 °F 32.0 °F 100% 29.97 in 0.2 mi SSW 6.9 mph - 0.08 in Fog , Snow Heavy Snow
9:53 AM 32.0 °F 28.7 °F 32.0 °F 100% 29.92 in 0.2 mi South 3.5 mph - 0.13 in Fog , Snow Heavy Snow
10:01 AM 32.0 °F - 32.0 °F 100% 29.99 in 0.2 mi Calm Calm - 0.01 in Fog , Snow Heavy Snow
10:34 AM 32.0 °F 25.6 °F 32.0 °F 100% 29.99 in 1.2 mi SE 6.9 mph - 0.03 in Snow Light Snow
10:39 AM 32.0 °F 25.6 °F 32.0 °F 100% 29.99 in 3.0 mi SE 6.9 mph - 0.03 in Snow Light Snow
10:50 AM 33.8 °F 27.0 °F 32.0 °F 93% 29.98 in 9.0 mi East 8.1 mph - 0.03 in   Mostly Cloudy
10:53 AM 33.1 °F 26.9 °F 32.0 °F 96% 29.92 in 10.0 mi ESE 6.9 mph - 0.03 in   Mostly Cloudy
11:00 AM 33.8 °F 27.0 °F 32.0 °F 93% 29.98 in 10.0 mi ESE 8.1 mph - N/A   Scattered Clouds
11:53 AM 34.0 °F - 30.9 °F 89% 29.90 in 10.0 mi Calm Calm - N/A   Overcast
12:53 PM 41.0 °F 38.0 °F 32.0 °F 70% 29.86 in 10.0 mi SE 4.6 mph - 0.01 in   Clear
1:53 PM 43.0 °F 40.3 °F 32.0 °F 65% 29.81 in 10.0 mi South 4.6 mph - N/A   Clear
2:53 PM 44.1 °F 40.8 °F 30.9 °F 60% 29.80 in 10.0 mi SSW 5.8 mph - N/A   Partly Cloudy
3:53 PM 43.0 °F 39.5 °F 30.9 °F 62% 29.79 in 10.0 mi South 5.8 mph - N/A   Partly Cloudy
4:53 PM 43.0 °F 41.3 °F 32.0 °F 65% 29.81 in 10.0 mi Variable 3.5 mph - N/A   Overcast
5:53 PM 39.9 °F - 33.1 °F 77% 29.82 in 10.0 mi Calm Calm - N/A   Overcast
6:53 PM 41.0 °F 36.4 °F 32.0 °F 70% 29.83 in 10.0 mi ESE 6.9 mph - N/A   Overcast
7:53 PM 37.9 °F 32.1 °F 33.1 °F 83% 29.84 in 10.0 mi East 8.1 mph - N/A   Overcast
8:53 PM 37.0 °F 32.4 °F 33.1 °F 86% 29.88 in 10.0 mi East 5.8 mph - 0.00 in Rain Light Rain
9:15 PM 35.6 °F 31.7 °F 33.8 °F 93% 29.89 in 10.0 mi East 4.6 mph - 0.00 in Rain Light Rain
9:32 PM 35.6 °F - 33.8 °F 93% 29.89 in 6.0 mi Calm Calm - 0.01 in Snow Light Snow
9:39 PM 33.8 °F - 32.0 °F 93% 29.90 in 2.5 mi Calm Calm - 0.02 in Snow Light Snow
9:48 PM 33.8 °F - 32.0 °F 93% 29.90 in 1.8 mi Calm Calm - 0.04 in Snow Light Snow
9:53 PM 33.1 °F 30.0 °F 32.0 °F 96% 29.90 in 1.8 mi NNE 3.5 mph - 0.05 in Snow Light Snow
10:11 PM 32.0 °F 28.7 °F 32.0 °F 100% 29.91 in 0.8 mi SW 3.5 mph - 0.04 in Snow Light Snow
10:40 PM 32.0 °F - 32.0 °F 100% 29.91 in 1.2 mi Calm Calm - 0.08 in Snow Light Snow
10:53 PM 32.0 °F 28.7 °F 30.9 °F 96% 29.91 in 1.2 mi NE 3.5 mph - 0.09 in Snow Light Snow
11:02 PM 32.0 °F - 32.0 °F 100% 29.91 in 2.0 mi Calm Calm - 0.00 in Snow Light Snow
11:19 PM 32.0 °F - 32.0 °F 100% 29.90 in 2.0 mi Calm Calm - 0.01 in Snow Light Snow
11:27 PM 32.0 °F - 30.2 °F 93% 29.90 in 2.5 mi Calm Calm - 0.01 in Snow Light Snow
11:33 PM 32.0 °F - 32.0 °F 100% 29.91 in 1.8 mi Calm Calm - 0.01 in Snow Light Snow
11:42 PM 32.0 °F - 32.0 °F 100% 29.91 in 1.0 mi Calm Calm - 0.02 in Snow Light Snow
11:45 PM 32.0 °F - 32.0 °F 100% 29.92 in 0.8 mi Calm Calm - 0.03 in Snow Light Snow
11:53 PM 32.0 °F - 32.0 °F 100% 29.92 in 0.8 mi Calm Calm - 0.04 in Snow Light Snow